IRIDIUM 152

Last updated on Tue Sep 22 2026 00:03:21 GMT+0000 (Coordinated Universal Time)

1 43479U 18047D 26264.38238764 .00000114 00000+0 33661-4 0 9996 2 43479 86.3948 48.0766 0002155 92.0694 268.0748 14.34217634436273
UTC large
Height (km)
Speed (km/s)
/
Latitude / Longitude
Inclination (degrees)
Orbital Period (minutes)
Azimuth
Elevation
Range (km)
Doppler Factor

Next 0 passes for location: London (51.5072 / 0.1276)

No passes found over London.
IRIDIUM 152